User: anonymous   Login
Location: Laguna de la Cañada del Gallo
(40.3974°N, 5.2096°W)
Time: 13:06:40
(UTC+00:00)
Language:

Cosmos 1932 - Orbit

View from above orbital plane
View from above orbital plane
View from above satellite
View from above satellite

Ground track
Ground track

The orbit data is extracted from the following two-line orbital elements,

1 18957U 88019A   24171.45970722 -.00000041  00000-0  44984-4 0  9996
2 18957  65.0425 201.7914 0032049 132.8809 227.4948 13.79754418828741
Epoch (UTC): 19 June 2024 11:01:58
Eccentricity: 0.0032049
inclination: 65.0425°
perigee height: 941 km
apogee height: 988 km
right ascension of ascending node: 201.7914°
argument of perigee: 132.8809°
revolutions per day: 13.79754418
mean anomaly at epoch: 227.4948°
orbit number at epoch: 82874

The dashed part of the orbit path shows where the satellite is in the earth's shadow,  

DLR